Regional Weather Roundup
Issued by NWS

Home | Current Version | Previous Version | Graphics & Text | Print | Product List | Glossary Off
Versions: 1 2 3 4 5 6 7 8 9 10 11 12 13 14 15 16 17 18 19 20 21 22 23 24 25 26 27 28 29 30 31 32 33 34 35 36 37 38 39 40 41 42 43 44 45 46 47 48 49 50

000
ASUS43 KTOP 270208
RWRKS

WEATHER ROUNDUP FOR KANSAS
NATIONAL WEATHER SERVICE GOODLAND KS
800 PM CST SUN FEB 26 2017

NOTE:  "FAIR" INDICATES FEW OR NO CLOUDS BELOW 12,000 FEET WITH NO
SIGNIFICANT WEATHER AND/OR OBSTRUCTIONS TO VISIBILITY.

KSZ001>006-013>018-027>032-041>047-270300-
NORTHWEST KANSAS

CITY           SKY/WX    TMP DP  RH WIND       PRES   REMARKS
GOODLAND       CLEAR     28   7  41 SE13      29.85S WCI  17
HAYS           CLEAR     33   8  35 NE9       29.96S
HILL CITY      CLEAR     27   7  42 N5        29.95R
RUSSELL        CLEAR     41   5  22 N6        29.95R
$$

KSZ061>065-074>080-084>089-270300-
SOUTHWEST KANSAS

CITY           SKY/WX    TMP DP  RH WIND       PRES   REMARKS
DODGE CITY     CLEAR     33  13  43 E8        29.93R
ELKHART          N/A     39   6  25 E12         N/A  WCI  32
GARDEN CITY    CLEAR     36  10  34 E12       29.90R WCI  28
GREAT BEND     CLEAR     39  12  33 E5        29.97R
LIBERAL        CLEAR     45  10  24 E13       29.89R
PRATT          CLEAR     37  17  44 E6        29.96S
$$

KSZ066>073-081>083-090>101-270300-
SOUTHEAST KANSAS

CITY           SKY/WX    TMP DP  RH WIND       PRES   REMARKS
CHANUTE        CLEAR     41  33  73 E7        30.01R
COFFEYVILLE    CLEAR     40  34  79 NE9       30.01R
HUTCHINSON     CLEAR     39  22  50 NE6       29.98R
MEDICINE LODGE   N/A     43  22  43 E7        29.97R
NEWTON         CLEAR     40  23  50 NE6       29.99R
PARSONS        CLEAR     39  33  79 NE3       30.02R
WICHITA INTL   PTCLDY    45  24  43 E3        29.98R
WICHITA JABRA  CLEAR     42  25  50 NE3       29.98R
WICHITA MCCONL CLEAR     46  24  43 CALM      29.98R
WINFIELD       CLEAR     40  28  62 N6        29.99R
$$

KSZ007>012-019>026-033>040-048>060-102>105-270300-
NORTHEAST KANSAS

CITY           SKY/WX    TMP DP  RH WIND       PRES   REMARKS
CONCORDIA      CLEAR     41   8  25 CALM      29.97R
EMPORIA        CLEAR     38  26  62 S8        29.99R
LAWRENCE       PTCLDY    39  33  79 SE8       30.00R
MANHATTAN      CLEAR     36  23  59 CALM      29.98R
MARYSVILLE     CLEAR     34  19  55 NE5       29.98R
OLATHE IND     CLEAR     40  35  83 SE12      30.01R WCI  33
OLATHE EXE     CLEAR     39  36  89 SE9       30.01R
SALINA         CLEAR     32  18  56 S6        29.99R
TOPEKA BILLARD CLEAR     41  26  55 CALM      29.98R
TOPEKA FORBES  CLEAR     39  24  55 CALM      29.98R
$$



USA.gov is the U.S. government's official web portal to all federal, state and local government web resources and services.